ONEWEB-0027, 45432

Orbit data source: Space-Track

ONEWEB-0027, 45432 is a payload satellite owned by One Web (UK) in LEO that was launched on Sat, 21 Mar 2020 UTC via a SOYUZ-2-1B launch vehicle from the Tyuratam Missile And Space Complex (TTMTR). Payload-class satellites include a variety of spacecraft equipped with specific instruments for various scientific and technological missions. These include communications satellites like Starlink; space stations such as the ISS; scientific satellites like the Hubble; Earth observation satellites from companies like Planet Labs, Umbra, and HawkEye 360; GPS; miniature CubeSats for education and research; and military/defense satellites.

Loading next visibility...
Identifier
45432, 2020-020J
Orbit
LEO
Country
Flag of UKUK
Related business
Manufacturer
One Web
Mission
Operational Commercial Communications
Bus & Motor
ARROW, Unknown motor
Mass
148 kg wet, ~140 kg dry
Launch date (UTC)
2020-03-21 (6 years ago)
Launch vehicle
SOYUZ-2-1B
Launch site
Tyuratam Missile And Space Complex (TTMTR)
Object type
Payload
Rocket body
Debris
Shape & HBR
Trap Box + 2 Pan, 6.7 m
Radar Cross Section
3.464 m², Large (>1 m²)

Expand to show TLE details & history
Last TLE update: 22 hours ago

TLE from 22 hours ago
0 ONEWEB-0027
1 45432U 20020J   25286.58925757  .00000108  00000-0  24506-3 0  9992
2 45432  87.9103  54.8759 0002115  98.6404 261.4967 13.17648440273887
Epoch: 2025-10-13T14:08Z
TLE epoch observation values (Epoch: 2025-10-13T14:08:31.854Z)
Latitude
-0.00002°
Longitude
-179.64669°
Altitude
1,196.851 km
Speed
7.255 km/s
True Right ascension
03h 39m 30s
True Declination
0° 00' 00"
Sunlit
Object was in full shadow at epoch
Visualization orbit readout
Latitude
Unknown
Longitude
Unknown
Altitude
Unknown
Speed
Unknown
Apparent Right ascension
Unknown
Apparent Declination
Unknown
Sunlit
N/A
Visualization observer readout
Local Sidereal Time
06:14:09
Azimuth
Unknown
Elevation
Unknown
Doppler factor
Unknown
Orbital elements
Apogee altitude
1,192.425 km
Perigee altitude
1,189.223 km
Semi-major axis
7,568.961 km
Eccentricity
0.00021
Inclination
87.9103°
RAAN
54.8759°
Arg. of periapsis
98.6404°
True anomaly
261.47273°
Mean anomaly
261.4967°
Eccentric anomaly
261.48472°
Mean motion
3.29601 °/min
Orbital period
109.22 mins
BSTAR
0.00024506
Loading maneuver chart data...
Computing Atmospheric mass density...
Loading historical data...
Loading historical data...
Loading historical data...
Loading historical data...
Loading historical data...
Loading historical data...
Loading historical data...

Documentation

Showing up to 5 results
|